Location: Molveno
(46.1500°N, 10.9667°E)
Time: 17:01:21
(UTC+00:00)

COSMOS 2455 - Pass Details

Date: 05 July 2020
Orbit: 898 x 911 km, 67.1° (Epoch: 11 August)

Event Time Altitude Azimuth Distance (km) Brightness Sun altitude
Rises 23:27:11 0° 326° (NNW) 3,551 6.8 -21.2°
Reaches altitude 10° 23:29:42 10° 326° (NNW) 2,606 6.0 -21.2°
Maximum altitude 23:35:47 85° 240° (WSW) 921 2.8 -21.1°
Enters shadow 23:38:25 36° 154° (SSE) 1,405 3.4 -21.1°
